Jeszkotle, Poland

1:39 AM CEST on August 18, 2017 (GMT +0200)
Jeszkotle

Weather History for 12424 - August, 2013

Change the Weather History Date:

Monday, August 19, 2013

  Actual Average Record
Temperature  
Mean Temperature 66 °F -  
Max Temperature 71 °F 70 °F - ()
Min Temperature 61 °F 50 °F - ()
Cooling Degree Days 1    
Growing Degree Days 16 (Base 50)    
Moisture  
Dew Point 63 °F    
Average Humidity 88    
Maximum Humidity 100    
Minimum Humidity 68    
Precipitation  
Precipitation 0.16 in 0.08 in - ()
Sea Level Pressure  
Sea Level Pressure 30.02 in    
Wind  
Wind Speed 3 mph ()    
Max Wind Speed 8 mph    
Max Gust Speed -    
Visibility 6.9 miles    
Events Fog , Rain    
T = Trace of Precipitation, MM = Missing Value Source: Averaged Metar Reports

Daily Weather History Graph

Daily Weather History Graph

Search for Another Location

Airport or City:

Trip Planner

Search our weather history database for the weather conditions in past years. The results will help you decide how hot, cold, wet, or windy it might be!

Date:

Astronomy

Aug. 19, 2013 Rise Set
Actual Time 5:45 AM CEST 8:05 PM CEST
Civil Twilight 5:08 AM CEST 8:41 PM CEST
Nautical Twilight 4:22 AM CEST 9:27 PM CEST
Astronomical Twilight 3:29 AM CEST 10:20 PM CEST
Moon 6:45 PM CEST (8/19) 3:37 AM CEST (8/19)
Length of Visible Light 15h 33m
Length of Day
14h 20m
Waxing Gibbous, 96% of the Moon is Illuminated
Aug 19
Waxing Gibbous
Aug 21
Full
Aug 28
Last Quarter
Sep 5
New
Sep 12
First Quarter

Hourly Weather History & Observations

Time (CEST) Temp. Dew Point Humidity Pressure Visibility Wind Dir Wind Speed Gust Speed Precip Events Conditions
12:00 AM 68.0 °F 64.4 °F 88% 30.01 in 6.2 mi WSW 3.5 mph - N/A   Partly Cloudy
12:30 AM 68.0 °F 62.6 °F 83% 30.01 in 6.2 mi West 6.9 mph - N/A   Partly Cloudy
1:00 AM 68.0 °F 62.6 °F 83% 30.01 in 6.2 mi West 8.1 mph - N/A   Partly Cloudy
1:30 AM 68.0 °F 62.6 °F 83% 30.01 in 6.2 mi West 4.6 mph - N/A   Partly Cloudy
2:00 AM 67 °F 62 °F 79% 30.01 in 25 mi West 2.2 mph - -   Partly Cloudy
2:00 AM 66.2 °F 62.6 °F 88% 30.01 in 6.2 mi Variable 2.3 mph - N/A   Partly Cloudy
2:30 AM 66.2 °F 62.6 °F 88% 30.01 in - WNW 2.3 mph - N/A   Clear
3:00 AM 64.4 °F 62.6 °F 94% 30.01 in - South 2.3 mph - N/A   Clear
3:30 AM 64.4 °F 62.6 °F 94% 30.01 in - Variable 2.3 mph - N/A   Clear
4:00 AM 62.6 °F 60.8 °F 94% 30.01 in - Calm Calm - N/A   Clear
4:30 AM 62.6 °F 60.8 °F 94% 30.01 in - West 1.2 mph - N/A   Clear
5:00 AM 61 °F 60 °F 93% 30.01 in 25 mi Calm Calm - - Fog Patches of Fog
5:00 AM 62.6 °F 60.8 °F 94% 30.01 in 6.2 mi Variable 1.2 mph - N/A Fog Shallow Fog
5:30 AM 62.6 °F 60.8 °F 94% 30.01 in 6.2 mi Variable 2.3 mph - N/A Fog Shallow Fog
6:00 AM 62.6 °F 60.8 °F 94% 30.01 in - Variable 2.3 mph - N/A   Clear
6:30 AM 62.6 °F 62.6 °F 100% 30.01 in - Variable 2.3 mph - N/A   Clear
7:00 AM 62.6 °F 60.8 °F 94% 30.01 in - Variable 2.3 mph - N/A   Clear
7:30 AM 64.4 °F 62.6 °F 94% 30.01 in - SSE 2.3 mph - N/A   Clear
8:00 AM 64.4 °F 62.6 °F 94% 30.01 in 6.2 mi ESE 4.6 mph - N/A Rain Light Rain Showers
8:30 AM 66.2 °F 64.4 °F 94% 30.01 in 6.2 mi Variable 2.3 mph - N/A   Partly Cloudy
9:00 AM 68.0 °F 64.4 °F 88% 29.98 in 6.2 mi Variable 2.3 mph - N/A Rain Light Rain Showers
9:30 AM 68.0 °F 64.4 °F 88% 29.98 in 6.2 mi Variable 2.3 mph - N/A Rain Light Rain Showers
10:00 AM 69.8 °F 66.2 °F 88% 30.01 in 6.2 mi Variable 1.2 mph - N/A Rain Light Rain Showers
10:30 AM 69.8 °F 66.2 °F 88% 30.01 in 6.2 mi SSE 3.5 mph - N/A Rain Light Rain Showers
11:00 AM 70 °F 66 °F 83% 30.01 in 19 mi South 4.5 mph - - Rain Light Rain Showers
11:00 AM 71.6 °F 66.2 °F 83% 30.01 in 6.2 mi Variable 2.3 mph - N/A Rain Light Rain Showers
11:30 AM 69.8 °F 68.0 °F 94% 30.01 in 6.2 mi SSE 4.6 mph - N/A Rain Light Rain
12:00 PM 69.8 °F 66.2 °F 88% 30.01 in 6.2 mi Variable 2.3 mph - N/A Rain Light Rain
12:30 PM 71.6 °F 66.2 °F 83% 30.01 in 6.2 mi Variable 2.3 mph - N/A Rain Light Rain
1:00 PM 71.6 °F 66.2 °F 83% 30.01 in 6.2 mi Variable 2.3 mph - N/A Rain Light Rain
1:30 PM 71.6 °F 64.4 °F 78% 30.01 in 6.2 mi Variable 2.3 mph - N/A Rain Light Rain
2:00 PM 71 °F 63 °F 70% 30.01 in 19 mi West 2.2 mph - - Rain Light Rain
2:00 PM 71.6 °F 66.2 °F 83% 30.01 in 6.2 mi WNW 2.3 mph - N/A Rain Light Rain
2:30 PM 71.6 °F 64.4 °F 78% 30.01 in 6.2 mi Variable 2.3 mph - N/A Rain Light Rain Showers
3:00 PM 71.6 °F 64.4 °F 78% 30.01 in 6.2 mi West 5.8 mph - N/A Rain Light Rain Showers
3:30 PM 69.8 °F 60.8 °F 73% 30.01 in 6.2 mi West 8.1 mph - N/A   Partly Cloudy
4:00 PM 69.8 °F 60.8 °F 73% 30.01 in 6.2 mi Variable 2.3 mph - N/A   Partly Cloudy
4:30 PM 69.8 °F 62.6 °F 78% 30.01 in 6.2 mi Variable 2.3 mph - N/A Rain Light Rain Showers
5:00 PM 69 °F 61 °F 69% 29.99 in 19 mi SE 2.2 mph - - Rain Light Rain Showers
5:00 PM 69.8 °F 59.0 °F 68% 30.01 in 6.2 mi Variable 1.2 mph - N/A Rain Light Rain Showers
5:30 PM 69.8 °F 64.4 °F 83% 30.01 in 6.2 mi Variable 1.2 mph - N/A Rain Light Rain Showers
6:00 PM 68.0 °F 66.2 °F 94% 30.01 in 6.2 mi Variable 1.2 mph - N/A Rain Light Rain Showers
6:30 PM 66.2 °F 64.4 °F 94% 30.01 in 6.2 mi Variable 1.2 mph - N/A Rain Light Rain Showers
7:00 PM 66.2 °F 64.4 °F 94% 30.04 in 6.2 mi West 3.5 mph - N/A Rain Light Rain
7:30 PM 66.2 °F 64.4 °F 94% 30.04 in 6.2 mi Variable 2.3 mph - N/A Rain Light Rain
8:00 PM 66.2 °F 64.4 °F 94% 30.04 in 6.2 mi South 3.5 mph - N/A Rain Light Rain
8:30 PM 66.2 °F 62.6 °F 88% 30.04 in 6.2 mi South 3.5 mph - N/A Rain Light Rain
9:00 PM 64.4 °F 62.6 °F 94% 30.04 in 5.0 mi SSW 3.5 mph - N/A Rain Rain
9:30 PM 64.4 °F 62.6 °F 94% 30.04 in 6.2 mi South 4.6 mph - N/A Rain Light Rain
10:00 PM 64.4 °F 62.6 °F 94% 30.04 in 5.0 mi SSE 4.6 mph - N/A Rain Rain
10:30 PM 64.4 °F 62.6 °F 94% 30.04 in 5.0 mi Variable 2.3 mph - N/A Rain Light Rain
11:00 PM 63 °F 63 °F 100% 30.05 in 5 mi SSE 6.7 mph - - Rain Light Rain
11:00 PM 64.4 °F 62.6 °F 94% 30.04 in 5.0 mi SSE 6.9 mph - N/A Rain Light Rain
11:30 PM 64.4 °F 62.6 °F 94% 30.06 in 5.0 mi Variable 3.5 mph - N/A Rain Light Rain